Weather Roundup
Issued by NWS

Home | Current Version | Previous Version | Text Only | Print | Product List | Glossary On
Versions: 1 2 3 4 5 6 7 8 9 10 11 12 13 14 15 16 17 18 19 20 21 22 23 24 25 26 27 28 29 30 31 32 33 34 35 36 37 38 39 40 41 42 43 44 45 46 47 48 49 50
000
NZUS93 KARX 010559
HRRWXR

CURRENT HOURLY OBSERVATIONS ACROSS
MUCH OF THE UPPER MISSISSIPPI VALLEY
NATIONAL WEATHER SERVICE LA CROSSE WI
100 AM CDT WED JUN 01 2016


...SOUTHEAST MINNESOTA...


CITY           SKY/WX    TMP DP  RH WIND       PRES   REMARKS
ROCHESTER      CLEAR     60  59  96 S6        29.91F
ROCHESTER/MAYO FAIR      61  61 100 S7        29.90S
WINONA         CLOUDY    61  59  94 SE3       29.90F
AUSTIN         CLEAR     57  55  94 SW5       29.90F
ALBERT LEA     PTCLDY    61  55  82 S3        29.90S
DODGE CENTER   CLEAR     61  57  88 S8        29.90S
PRESTON        CLOUDY    60  59  96 SW7       29.90F FOG
OWATONNA       PTCLDY    63  55  77 S8        29.89S
FARIBAULT      NOT AVBL
$$

...ELSEWHERE IN MINNESOTA...


CITY           SKY/WX    TMP DP  RH WIND       PRES   REMARKS
MINNEAPOLIS    PTCLDY    64  57  78 S7        29.84F
INTNL FALLS    CLOUDY    54  53  97 SE9       29.77F FOG
DULUTH         FOG       42  41  96 E12       29.83F VSB 1/4
RED WING       CLEAR     63  61  94 SE3       29.86S
REDWOOD FALLS  CLOUDY    63  46  54 W15       29.86R
MANKATO        CLEAR     63  48  59 S10       29.87S
WORTHINGTON    CLOUDY    59  50  72 W10       29.94R
FAIRMONT       PTCLDY    63  50  63 SW8       29.90S
$$

...SOUTHWEST WISCONSIN...


CITY           SKY/WX    TMP DP  RH WIND       PRES   REMARKS
LA CROSSE      CLOUDY    65  62  90 S6        29.91R
PRAIRIE DU CHI CLOUDY    63  62  96 CALM      29.92S
BOSCOBEL       NOT AVBL
LONE ROCK      TSTM      64  63  94 E3        29.94F FOG
PLATTEVILLE    CLOUDY    64  64  99 CALM      29.95R
FORT MC COY    CLOUDY    62  62  99 CALM      29.92R
CAMP DOUGLAS   LGT RAIN  62  62 100 S7        29.91S
MAUSTON-NEW LI LGT RAIN  63  62  97 SE7       29.92S
VIROQUA        CLOUDY    62  62 100 S5        29.93R
WIS DELLS      LGT RAIN  63  61  93 SW5       29.95F
$$

...ELSEWHERE IN WISCONSIN...


CITY           SKY/WX    TMP DP  RH WIND       PRES   REMARKS
MILWAUKEE      CLOUDY    62  56  80 SE6       29.95F
MADISON        CLOUDY    65  61  87 CALM      29.94R
GREEN BAY      CLOUDY    60  54  80 SW3       29.95S
EAU CLAIRE     NOT AVBL
BLACK RVR FLS  CLOUDY    62  62 100 CALM      29.91R
MEDFORD        CLOUDY    60  60 100 S9        29.90S
WAUSAU         LGT RAIN  62  59  90 SE3       29.90F
WIS RAPIDS     LGT RAIN  61  59  93 SE7       29.93S
MARSHFIELD     CLOUDY    62  59  90 S8        29.91R
RICE LAKE      CLOUDY    62  60  93 S6        29.88F
$$

...NORTHEAST IOWA...


CITY           SKY/WX    TMP DP  RH WIND       PRES   REMARKS
WATERLOO       FOG       62  60  93 CALM      29.91F VSB 1/4
DUBUQUE        LGT RAIN  63  62  97 S8        29.94S
DECORAH        CLOUDY    63  63 100 CALM      29.92S
MASON CITY     CLEAR     57  56  96 S5        29.92F
CHARLES CITY   FOG       63  63 100 S6        29.92F VSB<1/4
OELWEIN        CLOUDY    64 N/A N/A W6        29.93F
$$

...ELSEWHERE IN IOWA...


CITY           SKY/WX    TMP DP  RH WIND       PRES   REMARKS
DES MOINES     PTCLDY    65  62  90 W3        29.93F
IOWA CITY      CLOUDY    65  63  93 CALM      29.93R
FORT DODGE     CLEAR     55  50  82 CALM      29.94S
MARSHALLTOWN   FOG       59  59 100 CALM      29.92F VSB 1/4
CEDAR RAPIDS   CLOUDY    64  64 100 W5        29.91S
$$

...NORTHERN ILLINOIS...


CITY           SKY/WX    TMP DP  RH WIND       PRES   REMARKS
CHICAGO-OHARE  CLOUDY    64  59  83 CALM      29.95F
CHICAGO-MIDWAY CLOUDY    66  59  78 E7        29.95F
MOLINE         TSTM      66  62  87 E8        29.94S FOG
ROCKFORD       CLOUDY    67  61  81 S7        29.95F
PEORIA         CLOUDY    69  61  75 CALM      29.93S
$$

NOTE: "FAIR" INDICATES FEW OR NO CLOUDS BELOW 12,000 FEET WITH NO
SIGNIFICANT WEATHER AND/OR OBSTRUCTIONS TO VISIBILITY. WIND
SPEEDS ARE IN MILES-PER-HOUR.




USA.gov is the U.S. government's official web portal to all federal, state and local government web resources and services.